Погода в Калтуке

Россия / Иркутская область     55°40′39″N   101°44′09″E
В апреле 2022 года жителям России запретили посещать сайт meteo.paraplan.net по решению Генеральной прокуратуры. Аудитория сайта уменьшилась в 10 раз. Владельцы сайта не видят смысла в поддержке погодного сервера в таких условиях. Сайт будет закрыт в октябре.
темп.,
°C
ветер,
м/с
пор.,
м/с
влажн.,
%
обл.,
%
осадки,
мм/ч
давл.,
гПа
погр.,
м
5 октября, ср
ср523:00−1зюз118549 0.1 1034263
02:00−2з228661 0.2 1034235
05:00−2з338181 0.0 1033245
08:00−2зюз238374 0.0 1032273
11:000зюз236859 0.0 1031670
14:00+2ююз235789 0.0 10281073
17:00+4ююз34555 0.0 1026862
20:00+2юз346698 0.0 1025251
6 октября, чт
чт623:00+2ююз3368100 0.0 1023151
02:00+2зюз6974100 0.0 1023391
05:00+1зюз6996100 0.4 1023444
08:00+1з71092100 0.9 1024780
11:00+2зсз787097 0.1 10251237
14:00+2зсз676792 0.2 10251181
17:00+2з557093 0.1 1026773
20:00+1з337267 0.1 1027340
7 октября, пт
пт723:000зюз338011 0.0 1028215
02:00−1з338653 0.0 1029192
05:00−1зсз338811 0.0 1030231
08:00−1сз449093 0.1 1032429
11:000зсз3378100 0.1 1034575
14:00+1з3369100 0.1 1034686
17:00+1з3365100 0.1 1034842
20:00+1з2266100 0.1 1035603
8 октября, сб
сб823:00+1зюз226861 0.1 1035334
02:00−1юз34827 0.1 1036219
05:00−1ююз34775 0.0 1036221
08:00−1ю46774 0.0 1035320
11:00+2ю56645 0.0 1034531
14:00+5ююв67519 0.0 1032857
17:00+5ю67536 0.0 1030768
20:00+3ююв6106629 0.0 1029464
9 октября, вс
вс923:00+2ю6106788 0.0 1028313
02:00+2ю6965100 0.0 1026268
05:00+2ююв6865100 0.0 1025280
08:00+1ююв6967100 0.0 1024305
11:00+3ю6761100 0.0 1023356
14:00+6ю5651100 0.0 1021490
17:00+7ю5658100 0.0 1020338
20:00+4ю57698 0.0 1020169